Location: London
(42.9830°N, 81.2500°W)
Time: 16:32:43
(UTC-04:00)

Amateur Radio Satellites - All Passes

Search period start: 24 October 2014 16:02
Search period end: 25 October 2014 16:02
Location: London, 42.9830°N, 81.2500°W

Satellite Date Start Highest point End Downlink Frequencies (MHz)
Time Altitude Azimuth
JAS-1B 24 Oct 16:06:02 16:08:37 13° 271° (W) 16:11:08 435.800 - 435.900 CW/SSB
Gurwin Techsat 1B 24 Oct 16:12:28 16:17:08 31° 264° (W) 16:21:51 435.225 FM
JAS-2 24 Oct 16:21:03 16:24:29 15° 52° (NE) 16:28:06 435.800 - 435.900 CW/SSB, 435.910 FM
TMSAT-1 24 Oct 16:23:52 16:28:36 33° 264° (W) 16:33:23 436.925 FM
ISS 24 Oct 16:25:14 16:27:43 19° 353° (N) 16:30:12 145.800 FM
KITSAT 1 24 Oct 16:36:59 16:41:43 16° 341° (NNW) 16:46:28 435.175 FM
Hamsat 24 Oct 17:04:19 17:05:58 12° 62° (ENE) 17:07:38 145.90 MHz
Saudisat 1A 24 Oct 17:05:28 17:09:55 82° 56° (NE) 17:14:20 436.775 MHz
Uosat F 24 Oct 17:12:39 17:17:39 69° 257° (WSW) 17:22:42 435.120 FM
UOSAT-12 24 Oct 17:15:58 17:19:22 20° 321° (NW) 17:22:48 437.025 FM, 437.400 FM
AO-7 24 Oct 17:17:54 17:26:01 58° 257° (WSW) 17:34:11 29.400 - 29.500 MHz
JAS-2 24 Oct 18:02:21 18:08:16 80° 74° (ENE) 18:15:04 435.800 - 435.900 CW/SSB, 435.910 FM
ISS 24 Oct 18:02:30 18:05:14 23° 14° (NNE) 18:07:58 145.800 FM
SO-67 24 Oct 18:31:58 18:32:54 11° 64° (ENE) 18:33:49 435.3500 MHz FM
KITSAT 1 24 Oct 18:37:08 18:41:13 14° 12° (NNE) 18:45:17 435.175 FM
Hamsat 24 Oct 18:37:12 18:41:23 67° 259° (W) 18:45:34 145.90 MHz
Saudisat 1A 24 Oct 18:47:36 18:48:49 11° 252° (WSW) 18:50:01 436.775 MHz
OPAL 24 Oct 18:52:13 18:57:13 81° 106° (ESE) 19:02:09 ?
STRAND 1 24 Oct 18:59:18 19:01:36 13° 89° (E) 19:03:54 ?
ISS 24 Oct 19:38:58 19:42:19 81° 33° (NNE) 19:45:39 145.800 FM
JAS-2 24 Oct 19:50:45 19:54:21 16° 275° (W) 19:58:11 435.800 - 435.900 CW/SSB, 435.910 FM
SO-67 24 Oct 20:02:07 20:05:26 47° 261° (W) 20:08:47 435.3500 MHz FM
HO-68 24 Oct 20:15:51 20:21:55 31° 60° (ENE) 20:28:01 435.675 MHz FM
KITSAT 1 24 Oct 20:32:29 20:39:38 33° 41° (NE) 20:46:45 435.175 FM
OPAL 24 Oct 20:32:54 20:35:25 14° 304° (WNW) 20:37:56 ?
STRAND 1 24 Oct 20:36:12 20:41:23 79° 286° (WNW) 20:46:31 ?
Oscar 11 24 Oct 20:54:31 20:55:59 12° 61° (ENE) 20:57:26 145.825 FM, Beacon 2401.500 USB
SO-50 24 Oct 20:59:00 21:02:36 20° 40° (NE) 21:06:13 436.795 FM
ISS 24 Oct 21:16:56 21:18:35 13° 229° (SW) 21:20:14 145.800 FM
AO-40 24 Oct 21:21:05 23:26:54 28° 212° (SSW) 03:29:32 Beacon 2401.320
RS-15 24 Oct 21:40:33 21:49:26 30° 104° (ESE) 21:58:13 29.354 - 29.394 USB, Beacon 29.352 USB
ZACube-1 24 Oct 21:41:42 21:44:38 17° 64° (ENE) 21:47:32 437.345 MHz
UKube-1 24 Oct 21:45:45 21:49:52 44° 71° (ENE) 21:54:02 145.840 MHz, 145.915 MHz
HO-68 24 Oct 22:02:15 22:09:15 56° 258° (WSW) 22:16:19 435.675 MHz FM
STRAND 1 24 Oct 22:18:11 22:19:42 11° 304° (NW) 22:21:13 ?
UOSAT-12 24 Oct 22:23:59 22:26:46 15° 35° (NE) 22:29:33 437.025 FM, 437.400 FM
FUNcube-1 24 Oct 22:24:47 22:29:07 44° 72° (ENE) 22:33:25 145.950 - 145.970 MHz USB
Oscar 11 24 Oct 22:27:13 22:31:33 76° 258° (WSW) 22:35:53 145.825 FM, Beacon 2401.500 USB
KITSAT 1 24 Oct 22:27:40 22:35:43 71° 243° (WSW) 22:43:42 435.175 FM
SO-50 24 Oct 22:38:49 22:43:39 72° 239° (WSW) 22:48:31 436.795 FM
ZACube-1 24 Oct 23:16:07 23:20:37 54° 260° (W) 23:25:04 437.345 MHz
MaSat-1 24 Oct 23:19:25 23:20:55 12° 105° (ESE) 23:22:23 437.345 MHz
UKube-1 24 Oct 23:23:21 23:26:17 18° 267° (W) 23:29:14 145.840 MHz, 145.915 MHz
RS-15 24 Oct 23:49:39 00:00:39 77° 306° (NW) 00:11:40 29.354 - 29.394 USB, Beacon 29.352 USB
FUNcube-1 25 Oct 00:02:24 00:05:41 19° 267° (W) 00:08:56 145.950 - 145.970 MHz USB
UOSAT-12 25 Oct 00:02:57 00:07:43 79° 55° (NE) 00:12:22 437.025 FM, 437.400 FM
KITSAT 1 25 Oct 00:26:11 00:29:39 13° 262° (W) 00:33:07 435.175 FM
MaSat-1 25 Oct 00:52:08 00:56:13 61° 298° (WNW) 00:59:54 437.345 MHz
UOSAT-12 25 Oct 01:45:08 01:47:11 13° 253° (WSW) 01:49:12 437.025 FM, 437.400 FM
JAS-1B 25 Oct 01:53:10 01:58:16 22° 94° (E) 02:03:57 435.800 - 435.900 CW/SSB
AO-Echo 25 Oct 01:59:45 02:00:05 10° 86° (E) 02:00:26 ?
Oscar 16 25 Oct 02:01:58 02:05:49 21° 93° (E) 02:09:39 437.025 USB, Beacon 2401.1428
RS-15 25 Oct 02:05:50 02:15:05 30° 335° (NNW) 02:24:29 29.354 - 29.394 USB, Beacon 29.352 USB
Uribyol 2 25 Oct 02:22:43 02:25:19 14° 89° (E) 02:27:54 436.500 FM
ITAMSAT 1 25 Oct 02:28:31 02:31:25 15° 90° (E) 02:34:18 435.822 SSB
Oscar 10/S400 25 Oct 02:42:01 03:23:28 13° 248° (WSW) 04:30:58 145.825 - 145.975 CW/USB, Beacon 145.810 USB
Gurwin Techsat 1B 25 Oct 02:49:28 02:51:37 12° 88° (E) 02:53:46 435.225 FM
Oscar 19 25 Oct 02:54:32 02:59:38 64° 102° (ESE) 03:04:42 437.125 CW, 437.150 USB
TMSAT-1 25 Oct 03:01:01 03:02:44 12° 87° (E) 03:04:28 436.925 FM
AO-27 25 Oct 03:12:40 03:17:34 39° 98° (E) 03:22:26 436.795 MHz FM
AO-Echo 25 Oct 03:34:16 03:39:37 82° 103° (ESE) 03:44:56 ?
Oscar 16 25 Oct 03:40:30 03:45:26 49° 290° (WNW) 03:50:20 437.025 USB, Beacon 2401.1428
JAS-1B 25 Oct 03:42:38 03:49:13 72° 287° (WNW) 03:57:05 435.800 - 435.900 CW/SSB
Sapphire 25 Oct 03:43:49 03:48:05 24° 108° (ESE) 03:52:22 437.095 MHz 1200 baud AX-25 AFSK
Uribyol 2 25 Oct 04:00:08 04:05:21 75° 286° (WNW) 04:10:31 436.500 FM
PCSat 25 Oct 04:05:24 04:10:25 40° 112° (ESE) 04:15:28 145.825 MHz
ITAMSAT 1 25 Oct 04:06:13 04:11:26 71° 287° (WNW) 04:16:36 435.822 SSB
RS-15 25 Oct 04:23:48 04:32:16 24° 10° (N) 04:40:53 29.354 - 29.394 USB, Beacon 29.352 USB
Gurwin Techsat 1B 25 Oct 04:26:54 04:32:15 84° 285° (WNW) 04:37:33 435.225 FM
OPAL 25 Oct 04:30:47 04:34:41 22° 61° (ENE) 04:38:33 ?
Oscar 19 25 Oct 04:35:08 04:38:28 18° 299° (WNW) 04:41:47 437.125 CW, 437.150 USB
TMSAT-1 25 Oct 04:38:01 04:43:22 89° 285° (WNW) 04:48:40 436.925 FM
AO-27 25 Oct 04:52:30 04:56:55 28° 295° (WNW) 05:01:18 436.795 MHz FM
JAS-2 25 Oct 05:12:24 05:16:14 14° 84° (E) 05:20:04 435.800 - 435.900 CW/SSB, 435.910 FM
AO-Echo 25 Oct 05:14:43 05:17:41 15° 301° (WNW) 05:20:39 ?
AO-7 25 Oct 05:18:13 05:26:11 47° 100° (E) 05:34:07 29.400 - 29.500 MHz
Uosat F 25 Oct 05:19:42 05:24:17 34° 97° (E) 05:28:50 435.120 FM
Sapphire 25 Oct 05:25:54 05:31:09 51° 306° (NW) 05:36:28 437.095 MHz 1200 baud AX-25 AFSK
JAS-1B 25 Oct 05:35:56 05:39:01 14° 305° (NW) 05:42:17 435.800 - 435.900 CW/SSB
Uribyol 2 25 Oct 05:42:36 05:43:55 11° 304° (NW) 05:45:13 436.500 FM
PCSat 25 Oct 05:49:02 05:53:54 33° 311° (NW) 05:58:48 145.825 MHz
ITAMSAT 1 25 Oct 05:49:15 05:49:58 10° 305° (NW) 05:50:41 435.822 SSB
OPAL 25 Oct 06:08:13 06:13:13 51° 258° (WSW) 06:18:11 ?
Gurwin Techsat 1B 25 Oct 06:09:12 06:11:23 13° 303° (WNW) 06:13:33 435.225 FM
STRAND 1 25 Oct 06:15:29 06:19:23 22° 63° (ENE) 06:23:17 ?
TMSAT-1 25 Oct 06:20:04 06:22:29 13° 302° (WNW) 06:24:55 436.925 FM
Hamsat 25 Oct 06:22:36 06:25:41 20° 93° (E) 06:28:46 145.90 MHz
RS-15 25 Oct 06:37:35 06:48:15 49° 42° (NE) 06:59:17 29.354 - 29.394 USB, Beacon 29.352 USB
JAS-2 25 Oct 06:54:36 07:02:24 73° 102° (ESE) 07:10:11 435.800 - 435.900 CW/SSB, 435.910 FM
Uosat F 25 Oct 06:58:36 07:02:59 30° 294° (WNW) 07:07:20 435.120 FM
AO-7 25 Oct 07:11:13 07:18:52 43° 300° (WNW) 07:26:32 29.400 - 29.500 MHz
Sapphire 25 Oct 07:14:01 07:15:55 12° 328° (NNW) 07:17:50 437.095 MHz 1200 baud AX-25 AFSK
Saudisat 1A 25 Oct 07:14:13 07:17:00 17° 110° (ESE) 07:19:48 436.775 MHz
SO-67 25 Oct 07:26:45 07:27:20 10° 90° (E) 07:27:55 435.3500 MHz FM
STRAND 1 25 Oct 07:53:16 07:58:13 50° 260° (W) 08:03:14 ?
Hamsat 25 Oct 07:57:54 08:01:45 36° 289° (WNW) 08:05:36 145.90 MHz
JAS-2 25 Oct 08:40:30 08:46:44 28° 300° (WNW) 08:53:02 435.800 - 435.900 CW/SSB, 435.910 FM
RS-15 25 Oct 08:50:07 09:00:57 59° 246° (WSW) 09:12:16 29.354 - 29.394 USB, Beacon 29.352 USB
Saudisat 1A 25 Oct 08:51:49 08:56:08 56° 308° (NW) 09:00:29 436.775 MHz
SO-67 25 Oct 08:57:15 09:00:34 45° 286° (WNW) 09:03:52 435.3500 MHz FM
MaSat-1 25 Oct 09:02:36 09:04:24 16° 53° (NE) 09:06:05 437.345 MHz
AO-7 25 Oct 09:08:11 09:09:27 10° 322° (NW) 09:10:44 29.400 - 29.500 MHz
HO-68 25 Oct 09:29:21 09:35:21 28° 94° (E) 09:41:17 435.675 MHz FM
Oscar 11 25 Oct 10:14:52 10:17:52 18° 92° (E) 10:20:50 145.825 FM, Beacon 2401.500 USB
Saudisat 1A 25 Oct 10:35:24 10:36:40 11° 328° (NNW) 10:37:57 436.775 MHz
MaSat-1 25 Oct 10:38:22 10:39:51 14° 254° (WSW) 10:41:16 437.345 MHz
ZACube-1 25 Oct 11:05:01 11:08:36 26° 95° (E) 11:12:07 437.345 MHz
KITSAT 1 25 Oct 11:06:15 11:10:08 14° 99° (E) 11:14:01 435.175 FM
RS-15 25 Oct 11:08:22 11:10:48 11° 266° (W) 11:13:16 29.354 - 29.394 USB, Beacon 29.352 USB
UKube-1 25 Oct 11:08:47 11:13:11 73° 103° (ESE) 11:17:31 145.840 MHz, 145.915 MHz
HO-68 25 Oct 11:16:23 11:23:26 60° 292° (WNW) 11:30:27 435.675 MHz FM
FUNcube-1 25 Oct 11:49:10 11:53:27 82° 103° (ESE) 11:57:37 145.950 - 145.970 MHz USB
Oscar 11 25 Oct 11:50:10 11:54:13 41° 289° (WNW) 11:58:15 145.825 FM, Beacon 2401.500 USB
ISS 25 Oct 12:22:45 12:24:50 16° 132° (SE) 12:26:56 145.800 FM
Sapphire 25 Oct 12:29:54 12:34:32 27° 46° (NE) 12:39:07 437.095 MHz 1200 baud AX-25 AFSK
Oscar 19 25 Oct 12:36:11 12:38:48 14° 59° (ENE) 12:41:26 437.125 CW, 437.150 USB
ZACube-1 25 Oct 12:41:21 12:44:58 27° 292° (WNW) 12:48:31 437.345 MHz
JAS-1B 25 Oct 12:42:45 12:46:09 16° 58° (ENE) 12:49:30 435.800 - 435.900 CW/SSB
Oscar 10/S400 25 Oct 12:44:27 13:00:59 24° 150° (SSE) 13:15:19 145.825 - 145.975 CW/USB, Beacon 145.810 USB
UKube-1 25 Oct 12:46:59 12:48:46 12° 300° (WNW) 12:50:32 145.840 MHz, 145.915 MHz
PCSat 25 Oct 12:52:09 12:57:17 41° 52° (NE) 13:02:23 145.825 MHz
SO-50 25 Oct 12:55:03 12:58:56 30° 114° (ESE) 13:02:56 436.795 FM
KITSAT 1 25 Oct 12:56:07 13:04:08 75° 118° (ESE) 13:12:13 435.175 FM
HO-68 25 Oct 13:06:49 13:09:41 13° 312° (NW) 13:12:33 435.675 MHz FM
AO-Echo 25 Oct 13:12:09 13:14:56 15° 59° (ENE) 13:17:46 ?
Oscar 16 25 Oct 13:19:36 13:24:14 34° 67° (ENE) 13:28:51 437.025 USB, Beacon 2401.1428
FUNcube-1 25 Oct 13:28:37 13:29:08 10° 300° (WNW) 13:29:40 145.950 - 145.970 MHz USB
Uribyol 2 25 Oct 13:40:51 13:45:01 25° 64° (ENE) 13:49:11 436.500 FM
ITAMSAT 1 25 Oct 13:46:55 13:51:11 26° 64° (ENE) 13:55:27 435.822 SSB
ISS 25 Oct 13:57:52 14:01:11 69° 329° (NNW) 14:04:31 145.800 FM
Gurwin Techsat 1B 25 Oct 14:10:38 14:14:44 23° 63° (ENE) 14:18:50 435.225 FM
Oscar 19 25 Oct 14:12:18 14:17:28 82° 257° (WSW) 14:22:38 437.125 CW, 437.150 USB
Sapphire 25 Oct 14:12:58 14:18:14 52° 246° (WSW) 14:23:28 437.095 MHz 1200 baud AX-25 AFSK
UOSAT-12 25 Oct 14:16:13 14:19:28 19° 110° (ESE) 14:22:46 437.025 FM, 437.400 FM
TMSAT-1 25 Oct 14:21:37 14:25:34 22° 63° (ENE) 14:29:33 436.925 FM
AO-7 25 Oct 14:30:03 14:34:49 17° 46° (NE) 14:39:36 29.400 - 29.500 MHz
JAS-1B 25 Oct 14:30:17 14:36:14 74° 257° (WSW) 14:41:55 435.800 - 435.900 CW/SSB
AO-27 25 Oct 14:31:36 14:36:45 65° 72° (ENE) 14:41:57 436.795 MHz FM
SO-50 25 Oct 14:35:13 14:39:23 35° 313° (NW) 14:43:41 436.795 FM
PCSat 25 Oct 14:35:50 14:40:34 31° 250° (WSW) 14:45:15 145.825 MHz
AO-Echo 25 Oct 14:48:09 14:53:02 73° 258° (WSW) 14:58:07 ?
KITSAT 1 25 Oct 14:53:14 15:00:17 32° 320° (NW) 15:07:22 435.175 FM
Oscar 16 25 Oct 14:59:03 15:03:34 30° 264° (W) 15:08:07 437.025 USB, Beacon 2401.1428
Uribyol 2 25 Oct 15:19:13 15:24:12 45° 261° (W) 15:29:14 436.500 FM
ITAMSAT 1 25 Oct 15:25:31 15:30:26 42° 261° (W) 15:35:24 435.822 SSB
ISS 25 Oct 15:35:40 15:38:19 21° 348° (NNW) 15:40:59 145.800 FM
Saudisat 1A 25 Oct 15:38:39 15:42:07 22° 42° (NE) 15:45:33 436.775 MHz
Gurwin Techsat 1B 25 Oct 15:49:13 15:54:21 50° 261° (W) 15:59:32 435.225 FM
